Tracking 28081 objects as of 26-Sep-2023
HD Live streaming from Space Station
objects crossing your sky now

SL-12 R/B(AUX MOTOR)

Track SL-12 R/B(AUX MOTOR) now!
10-day predictions


NORAD ID: 19170
Int'l Code: 1988-043H
Perigee: 761.1 km
Apogee: 18,694.5 km
Inclination: 65.3 °
Period: 338.8 minutes
Semi major axis: 16098 km
RCS: 0.7038 m2 (medium)
Launch date: May 21, 1988
Source: Commonwealth of Independent States (former USSR) (CIS)
Launch site: TYURATAM MISSILE AND SPACE COMPLEX (TTMTR)

Note: This is a ROCKET BODY
Your satellite tracking list
Your tracking list is empty




NASA's NSSDC Master Catalog

Two Line Element Set (TLE):
1 19170U 88043H   23268.50746710  .00000022  00000-0 -71338-4 0  9993
2 19170  65.2887 281.7926 5569809  73.6966 338.4800  4.25023144547737
Source of the keplerian elements: AFSPC